Regional Weather Roundup
Issued by NWS

Home | Current Version | Previous Version | Text Only | Print | Product List | Glossary On
Versions: 1 2 3 4 5 6 7 8 9 10 11 12 13 14 15 16 17 18 19 20 21 22 23 24 25 26 27 28 29 30 31 32 33 34 35 36 37 38 39 40 41 42 43 44 45 46 47 48 49 50
000
ASUS43 KIND 231009
RWRIN

WEATHER ROUNDUP FOR INDIANA
NATIONAL WEATHER SERVICE INDIANAPOLIS IN
600 AM EDT WED JUL 23 2014

NOTE: "FAIR" INDICATES FEW OR NO CLOUDS BELOW 12,000 FEET WITH NO
SIGNIFICANT WEATHER AND/OR OBSTRUCTIONS TO VISIBILITY.

* - STATION DOES NOT REPORT WEATHER SUCH AS PRECIPITATION OR FOG.

+ - STATION NOT QUALITY CONTROLLED BY THE NATIONAL WEATHER SERVICE.
    USE DATA WITH CAUTION...ESPECIALLY DEWPOINT AND RELATIVE
    HUMIDITY OBSERVATIONS.

INZ001>003-010>013-019-020-231100-
NORTHWEST INDIANA

CITY           SKY/WX    TMP DP  RH WIND       PRES   REMARKS
GARY /AIRPORT/ MOCLDY    66  61  82 N14G29    30.06R
KNOX *+        CLOUDY    69  67  93 N7        30.00R
LA PORTE +     CLOUDY    66  66 100 N14       30.02R
MICHIGAN CITY+ CLOUDY    64  63  94 N13       30.04R
MONTICELLO +   LGT RAIN  68  68  98 CALM      30.00F
RENSSELAER +   CLOUDY    68  68 100 N10G16    30.02R
VALPARAISO     CLOUDY    65  63  93 N7        30.03R

$$

LMZ046-743>745-231100-
SOUTHERN LAKE MICHIGAN

STATION/POSITION TIME  TEMP WIND        PRES
                       AIR  DIR/SP/G
                 (UTC) (F)  (DEG/KT/KT) (MB)
BURNS HARBOR     0900   69   10/ 19/ 23 1016.9
MICHIGAN CITY    1000   66  350/ 22/ 26   N/A

$$

INZ004-005-014>016-021>024-231100-
NORTH CENTRAL INDIANA

CITY           SKY/WX    TMP DP  RH WIND       PRES   REMARKS
GOSHEN         CLOUDY    69  67  93 W6        30.00R
LOGANSPORT +   CLOUDY    64  64 100 W3        30.01R
PERU/GRISSOM   CLOUDY    68  68 100 SW9       30.00R
ROCHESTER +    CLOUDY    70  70 100 W5        29.98F
SOUTH BEND     CLOUDY    70  67  90 N12       30.01R
WARSAW +       LGT RAIN  68  66  94 W7        30.00R

$$

INZ006>009-017-018-025>027-231100-
NORTHEAST INDIANA

CITY           SKY/WX    TMP DP  RH WIND       PRES   REMARKS
ANGOLA *+      PTCLDY    70  61  73 CALM      30.02R
AUBURN +       LGT RAIN  70  63  78 NW6       30.02R
FORT WAYNE     LGT RAIN  71  65  81 W8        29.99F
HUNTINGTON +   CLOUDY    69  66  91 SW5       29.99F

$$

INZ028-029-035-036-043>045-051>053-231100-
WEST CENTRAL INDIANA

CITY           SKY/WX    TMP DP  RH WIND       PRES   REMARKS
GREENCASTLE +  CLOUDY    72  70  94 CALM      30.04R FOG
LAFAYETTE      CLOUDY    72  70  93 W8        30.00F FOG
TERRE HAUTE    CLOUDY    73  69  87 SE3       30.02R

$$

INZ030>032-037>040-046>048-054>057-064-065-231100-
CENTRAL INDIANA

CITY           SKY/WX    TMP DP  RH WIND       PRES   REMARKS
CP ATTERBURY + MOCLDY    68  64  88 CALM      30.05S FOG
INDIANAPOLIS   CLOUDY    74  68  81 S5        30.02R THUNDER
-EAGLE CREEK   CLOUDY    75  68  78 CALM      30.02R THUNDER
KOKOMO *+      CLOUDY    70  66  88 SW10      30.01F
MARION +       LGT RAIN  68  65  92 S5        30.01F
MT COMFORT *+  CLOUDY    72 N/A N/A NE12      30.06R
SHELBYVILLE    CLOUDY    73  69  87 S3        30.03S
ZIONSVILLE +   TSTM      74  67  78 N10       30.05R

$$

INZ033-034-041-042-049-050-058-059-231100-
EAST CENTRAL INDIANA

CITY           SKY/WX    TMP DP  RH WIND       PRES   REMARKS
MUNCIE         LGT RAIN  72  66  81 NW6       30.06S

$$

INZ060-061-067>069-081>083-085>088-231100-
SOUTHWEST INDIANA

CITY           SKY/WX    TMP DP  RH WIND       PRES   REMARKS
EVANSVILLE     PTCLDY    75  70  84 W3        30.02S
HUNTINGBURG *+ CLEAR     72  66  83 S5        30.03S
WASHINGTON +   MOCLDY    68  68 100 CALM      30.02R FOG

$$

INZ062-063-066-070>080-084-089>092-231100-
SOUTH CENTRAL AND SOUTHEAST INDIANA

CITY           SKY/WX    TMP DP  RH WIND       PRES   REMARKS
BEDFORD +      PTCLDY    70  66  88 CALM      30.05R FOG
BLOOMINGTON    MOCLDY    73  68  84 CALM      30.04R
SEYMOUR +      PTCLDY    64  55  72 CALM      30.04R

$$



USA.gov is the U.S. government's official web portal to all federal, state and local government web resources and services.